• In Germany
  • List of Countries
  • For 7 days
  • Water Temperature
  • Satellite Maps
  • Weather Map
  • Weather Widgets
  • user-avatar
    Login

    Hourly Weather Sankt Polten

    Today, 25 April, Tuesday

    Time Temperature Precipitation Wind Pressure Humidity
    00:00 +5°C° 0 mm 2 mps 732 mmHg 92%
    01:00 +5°C° 0 mm 2 mps 731 mmHg 91%
    02:00 +5°C° 0 mm 2 mps 731 mmHg 91%
    03:00 +5°C° 0 mm 2 mps 731 mmHg 90%
    04:00 +5°C° 0 mm 2 mps 730 mmHg 89%
    05:00 +7°C° 0 mm 2 mps 730 mmHg 85%
    06:00 +9°C° 0 mm 1 mps 730 mmHg 82%
    07:00 +10°C° 0 mm 2 mps 730 mmHg 77%
    08:00 +13°C° 0 mm 2 mps 730 mmHg 72%
    09:00 +15°C° 0 mm 2 mps 730 mmHg 66%
    10:00 +17°C° 0 mm 2 mps 730 mmHg 60%
    11:00 +18°C° 0 mm 2 mps 730 mmHg 59%
    12:00 +18°C° 0 mm 2 mps 729 mmHg 58%
    13:00 +19°C° 0 mm 3 mps 729 mmHg 57%
    14:00 +19°C° 0.2 mm 2 mps 729 mmHg 59%
    15:00 +19°C° 0.2 mm 2 mps 728 mmHg 62%
    16:00 +18°C° 0.2 mm 2 mps 728 mmHg 64%
    17:00 +16°C° 0.2 mm 2 mps 728 mmHg 73%
    18:00 +14°C° 0.2 mm 1 mps 727 mmHg 81%
    19:00 +12°C° 0.2 mm 1 mps 727 mmHg 90%
    20:00 +11°C° 0.3 mm 1 mps 727 mmHg 91%
    21:00 +10°C° 0.3 mm 2 mps 728 mmHg 93%
    22:00 +9°C° 0.3 mm 2 mps 728 mmHg 94%
    23:00 +9°C° 0.2 mm 2 mps 728 mmHg 94%

    Tomorrow, 26 April, Wednesday

    Time Temperature Precipitation Wind Pressure Humidity
    00:00 +9°C° 0.2 mm 2 mps 728 mmHg 94%
    01:00 +9°C° 0.2 mm 2 mps 728 mmHg 94%
    02:00 +8°C° 0.1 mm 2 mps 728 mmHg 94%
    03:00 +8°C° 0.1 mm 2 mps 728 mmHg 95%
    04:00 +9°C° 0.1 mm 1 mps 727 mmHg 96%
    05:00 +9°C° 0 mm 1 mps 728 mmHg 94%
    06:00 +10°C° 0 mm 1 mps 728 mmHg 93%
    07:00 +11°C° 0 mm 1 mps 728 mmHg 91%
    08:00 +12°C° 0.1 mm 2 mps 728 mmHg 87%
    09:00 +13°C° 0.1 mm 2 mps 729 mmHg 83%
    10:00 +14°C° 0.1 mm 2 mps 729 mmHg 79%
    11:00 +13°C° 0.3 mm 2 mps 729 mmHg 81%
    12:00 +12°C° 0.3 mm 3 mps 729 mmHg 82%
    13:00 +12°C° 0.3 mm 3 mps 729 mmHg 84%
    14:00 +12°C° 0.4 mm 3 mps 729 mmHg 85%
    15:00 +11°C° 0.4 mm 3 mps 728 mmHg 86%
    16:00 +11°C° 0.4 mm 3 mps 728 mmHg 87%
    17:00 +10°C° 0.5 mm 3 mps 728 mmHg 89%
    18:00 +9°C° 0.5 mm 3 mps 728 mmHg 92%
    19:00 +8°C° 0.5 mm 2 mps 728 mmHg 94%
    20:00 +8°C° 0.5 mm 2 mps 729 mmHg 95%
    21:00 +7°C° 0.5 mm 2 mps 729 mmHg 96%
    22:00 +6°C° 0.5 mm 2 mps 730 mmHg 96%
    23:00 +6°C° 0.6 mm 2 mps 730 mmHg 97%

    Day after tomorrow, 27 April, Thursday

    Time Temperature Precipitation Wind Pressure Humidity
    00:00 +6°C° 0.6 mm 2 mps 730 mmHg 97%
    01:00 +6°C° 0.6 mm 2 mps 730 mmHg 97%
    02:00 +6°C° 0.7 mm 2 mps 730 mmHg 97%
    03:00 +6°C° 0.7 mm 2 mps 730 mmHg 97%
    04:00 +5°C° 0.7 mm 2 mps 730 mmHg 97%
    05:00 +5°C° 0.3 mm 2 mps 731 mmHg 96%
    06:00 +5°C° 0.3 mm 2 mps 731 mmHg 95%
    07:00 +6°C° 0.3 mm 2 mps 732 mmHg 94%
    08:00 +6°C° 0.3 mm 2 mps 732 mmHg 93%
    09:00 +7°C° 0.3 mm 2 mps 732 mmHg 91%
    10:00 +8°C° 0.3 mm 2 mps 732 mmHg 89%
    11:00 +8°C° 0.3 mm 2 mps 732 mmHg 88%
    12:00 +8°C° 0.3 mm 2 mps 732 mmHg 88%
    13:00 +9°C° 0.3 mm 2 mps 732 mmHg 87%
    14:00 +9°C° 0.4 mm 2 mps 732 mmHg 89%
    15:00 +9°C° 0.4 mm 2 mps 731 mmHg 90%
    16:00 +9°C° 0.4 mm 2 mps 731 mmHg 91%
    17:00 +8°C° 0.8 mm 2 mps 731 mmHg 93%
    18:00 +8°C° 0.8 mm 2 mps 731 mmHg 95%
    19:00 +7°C° 0.8 mm 2 mps 731 mmHg 97%
    20:00 +7°C° 0.7 mm 2 mps 731 mmHg 97%
    21:00 +7°C° 0.7 mm 2 mps 731 mmHg 98%
    22:00 +7°C° 0.7 mm 2 mps 730 mmHg 98%
    23:00 +6°C° 1 mm 2 mps 730 mmHg 98%

    28 April, Friday

    Time Temperature Precipitation Wind Pressure Humidity
    00:00 +6°C° 1 mm 2 mps 730 mmHg 98%
    01:00 +6°C° 1 mm 2 mps 729 mmHg 98%
    02:00 +6°C° 0.7 mm 2 mps 729 mmHg 98%
    03:00 +6°C° 0.7 mm 2 mps 729 mmHg 97%
    04:00 +6°C° 0.7 mm 2 mps 728 mmHg 97%
    05:00 +6°C° 0.5 mm 2 mps 728 mmHg 97%
    06:00 +6°C° 0.5 mm 2 mps 728 mmHg 97%
    07:00 +6°C° 0.5 mm 2 mps 728 mmHg 96%
    08:00 +6°C° 1.1 mm 2 mps 728 mmHg 96%
    09:00 +6°C° 1.1 mm 2 mps 728 mmHg 96%
    10:00 +6°C° 1.1 mm 2 mps 728 mmHg 95%
    11:00 +7°C° 0.9 mm 2 mps 729 mmHg 94%
    12:00 +7°C° 0.9 mm 3 mps 729 mmHg 93%
    13:00 +7°C° 0.9 mm 3 mps 729 mmHg 92%
    14:00 +8°C° 0.2 mm 3 mps 729 mmHg 90%
    15:00 +7°C° 0.2 mm 4 mps 729 mmHg 88%
    16:00 +8°C° 0.2 mm 4 mps 730 mmHg 86%
    17:00 +7°C° 0.2 mm 4 mps 730 mmHg 88%
    18:00 +7°C° 0.2 mm 3 mps 731 mmHg 91%
    19:00 +7°C° 0.2 mm 3 mps 731 mmHg 93%
    20:00 +5°C° 0.1 mm 3 mps 732 mmHg 94%
    21:00 +5°C° 0.1 mm 4 mps 732 mmHg 94%
    22:00 +5°C° 0.1 mm 4 mps 733 mmHg 94%
    23:00 +4°C° 0.1 mm 4 mps 733 mmHg 94%

    29 April, Saturday

    Time Temperature Precipitation Wind Pressure Humidity
    00:00 +4°C° 0.1 mm 4 mps 733 mmHg 94%
    01:00 +4°C° 0.1 mm 4 mps 734 mmHg 93%
    02:00 +3°C° 0 mm 3 mps 734 mmHg 94%
    03:00 +3°C° 0 mm 3 mps 734 mmHg 95%
    04:00 +2°C° 0 mm 3 mps 735 mmHg 95%
    05:00 +3°C° 0 mm 3 mps 735 mmHg 92%
    06:00 +4°C° 0 mm 3 mps 735 mmHg 89%
    07:00 +5°C° 0 mm 3 mps 735 mmHg 85%
    08:00 +7°C° 0 mm 3 mps 736 mmHg 80%
    09:00 +8°C° 0 mm 3 mps 736 mmHg 74%
    10:00 +10°C° 0 mm 3 mps 736 mmHg 68%
    11:00 +11°C° 0.1 mm 3 mps 735 mmHg 65%
    12:00 +12°C° 0.1 mm 3 mps 735 mmHg 62%
    13:00 +13°C° 0.1 mm 3 mps 735 mmHg 58%
    14:00 +13°C° 0.1 mm 3 mps 735 mmHg 58%
    15:00 +14°C° 0.1 mm 2 mps 735 mmHg 58%
    16:00 +14°C° 0.1 mm 2 mps 734 mmHg 58%
    17:00 +11°C° 0 mm 1 mps 734 mmHg 68%
    18:00 +9°C° 0 mm 1 mps 734 mmHg 79%
    19:00 +6°C° 0 mm 1 mps 734 mmHg 89%
    20:00 +6°C° 0 mm 1 mps 735 mmHg 89%
    21:00 +5°C° 0 mm 1 mps 735 mmHg 90%
    22:00 +5°C° 0 mm 1 mps 735 mmHg 90%
    23:00 +5°C° 0 mm 1 mps 735 mmHg 91%

    30 April, Sunday

    Time Temperature Precipitation Wind Pressure Humidity
    00:00 +5°C° 0 mm 1 mps 735 mmHg 91%
    01:00 +5°C° 0 mm 1 mps 735 mmHg 91%
    02:00 +4°C° 0 mm 1 mps 735 mmHg 92%
    03:00 +4°C° 0 mm 1 mps 735 mmHg 92%
    04:00 +4°C° 0 mm 1 mps 735 mmHg 93%
    05:00 +5°C° 0 mm 2 mps 735 mmHg 89%
    06:00 +7°C° 0 mm 2 mps 735 mmHg 84%
    07:00 +9°C° 0 mm 2 mps 735 mmHg 80%
    08:00 +12°C° 0 mm 2 mps 735 mmHg 73%
    09:00 +13°C° 0 mm 3 mps 735 mmHg 65%
    10:00 +14°C° 0 mm 4 mps 734 mmHg 58%
    11:00 +15°C° 0 mm 4 mps 734 mmHg 55%
    12:00 +17°C° 0 mm 4 mps 733 mmHg 53%
    13:00 +17°C° 0 mm 5 mps 733 mmHg 51%
    14:00 +17°C° 0 mm 5 mps 733 mmHg 53%
    15:00 +17°C° 0 mm 5 mps 732 mmHg 55%
    16:00 +17°C° 0 mm 5 mps 732 mmHg 57%
    17:00 +15°C° 0 mm 4 mps 732 mmHg 65%
    18:00 +13°C° 0 mm 4 mps 732 mmHg 74%
    19:00 +11°C° 0 mm 3 mps 732 mmHg 82%
    20:00 +11°C° 0 mm 3 mps 732 mmHg 85%
    21:00 +10°C° 0 mm 3 mps 732 mmHg 87%
    22:00 +9°C° 0 mm 3 mps 732 mmHg 90%
    23:00 +8°C° 0 mm 3 mps 732 mmHg 91%
    Show more